Showing default

FLOCK 4BE 35, 60558

Orbit data source: Space-Track

FLOCK 4BE 35, 60558 is a payload satellite owned by Planet (US) in SSO that was launched on Fri, 16 Aug 2024 UTC via an FALCON 9 launch vehicle from the Air Force Western Test Range (AFWTR). Payload-class satellites include a variety of spacecraft equipped with specific instruments for various scientific and technological missions. These include communications satellites like Starlink; space stations such as the ISS; scientific satellites like the Hubble; Earth observation satellites from companies like Planet Labs, Umbra, and HawkEye 360; GPS; miniature CubeSats for education and research; and military/defense satellites.

Loading next visibility...
Identifier
60558, 2024-149CU
Orbit
SSO
Country
Flag of USUS
Related business
Manufacturer
Planet
Mission
Operational Commercial Imaging
Bus & Motor
CUBESAT 3U, Unknown motor
Mass
5.7 kg wet, 5.7 kg dry
Launch date (UTC)
2024-08-16 (1 year ago)
Launch vehicle
FALCON 9
Launch site
Air Force Western Test Range (AFWTR)
Object type
Payload
Rocket body
Debris
Shape & HBR
Box + 2 Pan, 1.0 m
Radar Cross Section
0.072 m², Medium (>0.1 m² and < 1m²)

Expand to show TLE details & history
Last TLE update: 21 hours ago

TLE from 21 hours ago
0 FLOCK 4BE 35
1 60558U 24149CU  26034.21626804  .00073497  00000-0  19733-2 0  9993
2 60558  97.3863 117.1296 0003670  42.4306 317.7222 15.37659274 81691
Epoch: 2026-02-03T05:11Z
TLE epoch observation values (Epoch: 2026-02-03T05:11:25.558Z)
Latitude
-0.00003°
Longitude
-94.12727°
Altitude
454.293 km
Speed
7.641 km/s
True Right ascension
07h 48m 31s
True Declination
0° 00' 00"
Sunlit
Object was in full shadow at epoch
Visualization orbit readout
Latitude
Unknown
Longitude
Unknown
Altitude
Unknown
Speed
Unknown
Apparent Right ascension
Unknown
Apparent Declination
Unknown
Sunlit
N/A
Visualization observer readout
Local Sidereal Time
04:25:48
Azimuth
Unknown
Elevation
Unknown
Doppler factor
Unknown
Orbital elements
Apogee altitude
452.481 km
Perigee altitude
447.469 km
Semi-major axis
6,828.112 km
Eccentricity
0.00037
Inclination
97.3863°
RAAN
117.1296°
Arg. of periapsis
42.4306°
True anomaly
317.6939°
Mean anomaly
317.7222°
Eccentric anomaly
317.70805°
Mean motion
3.84673 °/min
Orbital period
93.59 mins
BSTAR
0.0019733
Loading maneuver chart data...
Computing Atmospheric mass density...
Loading historical data...
Loading historical data...
Loading historical data...
Loading historical data...
Loading historical data...
Loading historical data...
Loading historical data...

Documentation

Showing up to 5 results
|